GS247 EBAW-EHRD

Flight info

Callsign GS247
Flight time 0h 43m
Altitude 4000
Route NIK DCT HELEN
Aircraft AP32/L-SFG/C

Departure

Time 2026-04-27 10:12
Airport Antwerp International Airport (Deurne) (EBAW)

Arrival

Time 2026-04-27 10:56
Airport Rotterdam The Hague Airport (EHRD)
Time Latitude Longitude Altitude Speed Heading
2026-04-27 09:58 51.18987 4.45309 33 ft 0 kts 109°
2026-04-27 10:07 51.18988 4.45305 33 ft 3 kts 107°
2026-04-27 10:07 51.18988 4.45280 33 ft 4 kts 27°
2026-04-27 10:08 51.18974 4.45270 33 ft 1 kts 21°
2026-04-27 10:08 51.18972 4.45269 33 ft 0 kts 21°
2026-04-27 10:10 51.18986 4.45279 33 ft 7 kts 27°
2026-04-27 10:10 51.19062 4.45326 33 ft 14 kts 31°
2026-04-27 10:10 51.19117 4.45359 33 ft 4 kts 18°
2026-04-27 10:11 51.19133 4.45367 33 ft 0 kts 14°
2026-04-27 10:11 51.19163 4.45384 34 ft 15 kts 32°
2026-04-27 10:11 51.19159 4.45604 35 ft 39 kts 108°
2026-04-27 10:12 51.19007 4.46290 125 ft 81 kts 108°
2026-04-27 10:12 51.18815 4.47225 288 ft 94 kts 110°
2026-04-27 10:12 51.18548 4.48213 473 ft 99 kts 112°
2026-04-27 10:12 51.18251 4.49232 657 ft 103 kts 112°
2026-04-27 10:13 51.17972 4.50295 832 ft 104 kts 108°
2026-04-27 10:13 51.17727 4.51384 1018 ft 104 kts 106°
2026-04-27 10:13 51.17467 4.52466 1211 ft 105 kts 108°
2026-04-27 10:13 51.17192 4.53558 1406 ft 106 kts 108°
2026-04-27 10:14 51.16933 4.54650 1596 ft 106 kts 109°
2026-04-27 10:14 51.16530 4.55633 1757 ft 107 kts 128°
2026-04-27 10:14 51.15945 4.56347 1933 ft 109 kts 148°
2026-04-27 10:14 51.15212 4.56682 2100 ft 111 kts 169°
2026-04-27 10:15 51.14448 4.56517 2309 ft 116 kts 208°
2026-04-27 10:15 51.13914 4.55539 2496 ft 117 kts 237°
2026-04-27 10:15 51.13531 4.54388 2694 ft 118 kts 250°
2026-04-27 10:15 51.13367 4.53118 2867 ft 116 kts 265°
2026-04-27 10:16 51.13304 4.51844 3035 ft 115 kts 269°
2026-04-27 10:16 51.13306 4.50581 3202 ft 113 kts 274°
2026-04-27 10:16 51.13357 4.49343 3391 ft 112 kts 279°
2026-04-27 10:16 51.13489 4.48125 3597 ft 112 kts 285°
2026-04-27 10:17 51.13654 4.46909 3813 ft 113 kts 282°
2026-04-27 10:17 51.13766 4.45652 3937 ft 117 kts 279°
2026-04-27 10:17 51.13886 4.44328 3989 ft 123 kts 281°
2026-04-27 10:17 51.14033 4.42962 4018 ft 128 kts 282°
2026-04-27 10:18 51.14183 4.41550 4021 ft 131 kts 279°
2026-04-27 10:18 51.14316 4.40114 3994 ft 130 kts 280°
2026-04-27 10:18 51.14462 4.38694 4007 ft 131 kts 281°
2026-04-27 10:18 51.14611 4.37278 3999 ft 131 kts 281°
2026-04-27 10:19 51.14752 4.35856 3977 ft 129 kts 280°
2026-04-27 10:19 51.14889 4.34455 3984 ft 127 kts 281°
2026-04-27 10:19 51.15035 4.33059 4010 ft 129 kts 280°
2026-04-27 10:19 51.15175 4.31644 3993 ft 129 kts 280°
2026-04-27 10:20 51.15313 4.30242 3996 ft 128 kts 280°
2026-04-27 10:20 51.15456 4.28834 3998 ft 129 kts 281°
2026-04-27 10:20 51.15602 4.27426 4000 ft 129 kts 281°
2026-04-27 10:20 51.15740 4.26017 3990 ft 128 kts 280°
2026-04-27 10:21 51.15875 4.24631 4004 ft 128 kts 281°
2026-04-27 10:21 51.16020 4.23229 3994 ft 128 kts 281°
2026-04-27 10:21 51.16164 4.21821 3996 ft 129 kts 280°
2026-04-27 10:21 51.16294 4.20406 4005 ft 129 kts 280°
2026-04-27 10:22 51.16433 4.19007 3992 ft 129 kts 281°
2026-04-27 10:22 51.16599 4.17592 3978 ft 127 kts 287°
2026-04-27 10:22 51.16909 4.16267 4001 ft 129 kts 295°
2026-04-27 10:22 51.17267 4.14955 3983 ft 129 kts 297°
2026-04-27 10:23 51.17605 4.13648 4002 ft 130 kts 291°
2026-04-27 10:23 51.17872 4.12263 3978 ft 130 kts 290°
2026-04-27 10:23 51.18169 4.10909 3979 ft 128 kts 294°
2026-04-27 10:23 51.18493 4.09575 3986 ft 129 kts 294°
2026-04-27 10:24 51.18696 4.08684 3976 ft 128 kts 291°
2026-04-27 10:24 51.18979 4.07346 3981 ft 127 kts 290°
2026-04-27 10:24 51.19266 4.06003 4001 ft 129 kts 292°
2026-04-27 10:24 51.19592 4.04656 3997 ft 131 kts 294°
2026-04-27 10:25 51.19903 4.03296 3975 ft 130 kts 291°
2026-04-27 10:25 51.20185 4.01923 3980 ft 130 kts 292°
2026-04-27 10:25 51.20495 4.00585 3971 ft 130 kts 294°
2026-04-27 10:25 51.20809 3.99242 3970 ft 129 kts 292°
2026-04-27 10:26 51.21095 3.97892 3967 ft 128 kts 291°
2026-04-27 10:26 51.21391 3.96555 3982 ft 129 kts 293°
2026-04-27 10:26 51.21695 3.95213 3979 ft 129 kts 292°
2026-04-27 10:26 51.21997 3.93864 3984 ft 129 kts 292°
2026-04-27 10:27 51.22296 3.92507 3995 ft 131 kts 291°
2026-04-27 10:27 51.22599 3.91135 3980 ft 131 kts 292°
2026-04-27 10:27 51.22907 3.89768 3972 ft 131 kts 292°
2026-04-27 10:27 51.23216 3.88406 3953 ft 128 kts 291°
2026-04-27 10:28 51.23634 3.87170 3990 ft 127 kts 315°
2026-04-27 10:28 51.24407 3.86662 3968 ft 120 kts
2026-04-27 10:28 51.25234 3.86728 3969 ft 121 kts
2026-04-27 10:28 51.26072 3.86835 3960 ft 120 kts
2026-04-27 10:29 51.26895 3.86932 3966 ft 119 kts
2026-04-27 10:29 51.27727 3.86888 3990 ft 120 kts 359°
2026-04-27 10:29 51.28568 3.86847 3996 ft 121 kts
2026-04-27 10:29 51.29408 3.86842 3983 ft 121 kts
2026-04-27 10:30 51.30249 3.86810 3987 ft 122 kts
2026-04-27 10:30 51.31091 3.86781 4019 ft 123 kts
2026-04-27 10:30 51.31947 3.86774 4010 ft 123 kts
2026-04-27 10:30 51.32812 3.86757 4021 ft 124 kts
2026-04-27 10:31 51.33673 3.86734 3999 ft 123 kts
2026-04-27 10:31 51.34528 3.86720 3996 ft 123 kts
2026-04-27 10:31 51.35384 3.86693 3982 ft 123 kts
2026-04-27 10:31 51.36234 3.86672 3975 ft 122 kts
2026-04-27 10:32 51.37078 3.86649 3972 ft 120 kts
2026-04-27 10:32 51.37913 3.86635 3979 ft 120 kts
2026-04-27 10:32 51.38749 3.86617 3982 ft 120 kts
2026-04-27 10:32 51.39572 3.86600 3978 ft 120 kts
2026-04-27 10:33 51.40405 3.86568 3990 ft 119 kts
2026-04-27 10:33 51.41234 3.86561 3986 ft 118 kts
2026-04-27 10:33 51.42054 3.86612 3996 ft 117 kts 15°
2026-04-27 10:33 51.42724 3.87317 3982 ft 115 kts 41°
2026-04-27 10:34 51.43332 3.88144 3976 ft 115 kts 41°
2026-04-27 10:34 51.43930 3.88990 3974 ft 114 kts 42°
2026-04-27 10:34 51.44528 3.89831 3980 ft 115 kts 41°
2026-04-27 10:34 51.45166 3.90595 3980 ft 114 kts 35°
2026-04-27 10:35 51.45821 3.91295 3978 ft 114 kts 36°
2026-04-27 10:35 51.46459 3.92044 3992 ft 113 kts 39°
2026-04-27 10:35 51.47097 3.92820 4043 ft 118 kts 36°
2026-04-27 10:35 51.47779 3.93567 4016 ft 118 kts 36°
2026-04-27 10:36 51.48444 3.94335 4009 ft 117 kts 38°
2026-04-27 10:36 51.49094 3.95118 4002 ft 116 kts 37°
2026-04-27 10:36 51.49750 3.95878 3996 ft 116 kts 35°
2026-04-27 10:36 51.50418 3.96616 4009 ft 117 kts 37°
2026-04-27 10:37 51.51064 3.97405 3977 ft 116 kts 38°
2026-04-27 10:37 51.51711 3.98162 3977 ft 116 kts 36°
2026-04-27 10:37 51.52366 3.98894 3969 ft 114 kts 36°
2026-04-27 10:37 51.53006 3.99637 3972 ft 113 kts 38°
2026-04-27 10:38 51.53640 4.00392 3975 ft 113 kts 37°
2026-04-27 10:38 51.54280 4.01139 3979 ft 114 kts 36°
2026-04-27 10:38 51.54930 4.01880 3980 ft 114 kts 36°
2026-04-27 10:38 51.55573 4.02628 3980 ft 114 kts 37°
2026-04-27 10:39 51.56214 4.03370 4009 ft 115 kts 37°
2026-04-27 10:39 51.56858 4.04150 4012 ft 116 kts 39°
2026-04-27 10:39 51.57521 4.04920 4009 ft 119 kts 35°
2026-04-27 10:39 51.58205 4.05671 3992 ft 119 kts 36°
2026-04-27 10:40 51.58868 4.06462 3971 ft 117 kts 38°
2026-04-27 10:40 51.59511 4.07239 3978 ft 115 kts 37°
2026-04-27 10:40 51.60168 4.07995 3978 ft 115 kts 37°
2026-04-27 10:40 51.60821 4.08759 4001 ft 117 kts 36°
2026-04-27 10:41 51.61486 4.09516 3989 ft 117 kts 36°
2026-04-27 10:41 51.62131 4.10265 3981 ft 115 kts 37°
2026-04-27 10:41 51.62774 4.11034 3977 ft 114 kts 37°
2026-04-27 10:41 51.63406 4.11771 3984 ft 114 kts 37°
2026-04-27 10:42 51.64072 4.12502 4004 ft 115 kts 37°
2026-04-27 10:42 51.64703 4.13314 3996 ft 117 kts 40°
2026-04-27 10:42 51.65326 4.14140 3979 ft 115 kts 41°
2026-04-27 10:42 51.65933 4.14983 3978 ft 114 kts 42°
2026-04-27 10:43 51.66538 4.15800 3980 ft 113 kts 32°
2026-04-27 10:43 51.67293 4.15777 3982 ft 118 kts 336°
2026-04-27 10:43 51.67997 4.15084 3989 ft 120 kts 330°
2026-04-27 10:43 51.68699 4.14337 3983 ft 120 kts 328°
2026-04-27 10:44 51.69390 4.13579 3978 ft 120 kts 328°
2026-04-27 10:44 51.70075 4.12808 3977 ft 119 kts 329°
2026-04-27 10:44 51.70754 4.12035 3981 ft 119 kts 328°
2026-04-27 10:44 51.71433 4.11265 3980 ft 119 kts 328°
2026-04-27 10:45 51.72114 4.10486 4010 ft 121 kts 328°
2026-04-27 10:45 51.72809 4.09705 3992 ft 121 kts 328°
2026-04-27 10:45 51.73493 4.08932 4005 ft 122 kts 328°
2026-04-27 10:45 51.74260 4.08478 4007 ft 118 kts
2026-04-27 10:46 51.75051 4.08801 3992 ft 117 kts 18°
2026-04-27 10:46 51.75825 4.09213 3991 ft 117 kts 20°
2026-04-27 10:46 51.76590 4.09645 4027 ft 118 kts 21°
2026-04-27 10:46 51.77356 4.10116 4032 ft 117 kts 24°
2026-04-27 10:47 51.78114 4.10596 4031 ft 117 kts 21°
2026-04-27 10:47 51.78880 4.11081 4027 ft 118 kts 22°
2026-04-27 10:47 51.79647 4.11547 4010 ft 118 kts 22°
2026-04-27 10:47 51.80393 4.12037 3999 ft 116 kts 27°
2026-04-27 10:48 51.81082 4.12708 3998 ft 113 kts 35°
2026-04-27 10:48 51.81684 4.13422 3908 ft 107 kts 38°
2026-04-27 10:48 51.82285 4.14186 3687 ft 112 kts 39°
2026-04-27 10:48 51.82896 4.14985 3463 ft 114 kts 40°
2026-04-27 10:49 51.83511 4.15801 3228 ft 114 kts 41°
2026-04-27 10:49 51.84087 4.16663 3001 ft 114 kts 48°
2026-04-27 10:49 51.84622 4.17623 2721 ft 117 kts 52°
2026-04-27 10:49 51.85136 4.18674 2392 ft 120 kts 54°
2026-04-27 10:50 51.85640 4.19774 2204 ft 119 kts 55°
2026-04-27 10:50 51.86115 4.20811 2109 ft 110 kts 53°
2026-04-27 10:50 51.86570 4.21772 2040 ft 103 kts 53°
2026-04-27 10:50 51.86990 4.22648 2014 ft 95 kts 54°
2026-04-27 10:51 51.87390 4.23492 2016 ft 96 kts 54°
2026-04-27 10:51 51.87793 4.24349 2025 ft 98 kts 54°
2026-04-27 10:51 51.88199 4.25233 2040 ft 101 kts 56°
2026-04-27 10:51 51.88608 4.26213 2047 ft 105 kts 59°
2026-04-27 10:52 51.88983 4.27248 2052 ft 108 kts 63°
2026-04-27 10:52 51.89357 4.28305 2038 ft 109 kts 59°
2026-04-27 10:52 51.89775 4.29325 2048 ft 110 kts 55°
2026-04-27 10:52 51.90227 4.30309 1903 ft 110 kts 54°
2026-04-27 10:53 51.90648 4.31345 1766 ft 109 kts 60°
2026-04-27 10:53 51.91423 4.33367 1455 ft 102 kts 57°
2026-04-27 10:53 51.91810 4.34305 1304 ft 98 kts 57°
2026-04-27 10:54 51.92183 4.35203 1149 ft 95 kts 57°
2026-04-27 10:54 51.92555 4.36079 978 ft 96 kts 56°
2026-04-27 10:54 51.92939 4.36973 822 ft 99 kts 55°
2026-04-27 10:54 51.93336 4.37897 684 ft 100 kts 54°
2026-04-27 10:55 51.93742 4.38853 544 ft 105 kts 54°
2026-04-27 10:55 51.94134 4.39859 443 ft 103 kts 58°
2026-04-27 10:55 51.94470 4.40869 371 ft 101 kts 56°
2026-04-27 10:55 51.94833 4.41858 224 ft 104 kts 57°
2026-04-27 10:56 51.95217 4.42826 45 ft 93 kts 57°
2026-04-27 10:56 51.95504 4.43557 8 ft 63 kts 57°
2026-04-27 10:56 51.95707 4.44072 -1 ft 47 kts 56°
2026-04-27 10:56 51.95854 4.44444 -7 ft 32 kts 58°
2026-04-27 10:57 51.95906 4.44673 -6 ft 13 kts 128°
2026-04-27 10:57 51.95863 4.44726 -5 ft 8 kts 147°
2026-04-27 10:57 51.95844 4.44745 -5 ft 0 kts 147°
2026-04-27 10:58 51.95822 4.44760 -5 ft 12 kts 173°
2026-04-27 10:58 51.95733 4.44634 -5 ft 20 kts 237°
2026-04-27 10:59 51.95656 4.44438 -5 ft 21 kts 238°
2026-04-27 10:59 51.95568 4.44219 -5 ft 26 kts 239°
2026-04-27 10:59 51.95468 4.43964 -5 ft 27 kts 237°
2026-04-27 11:00 51.95350 4.43665 -5 ft 17 kts 240°
2026-04-27 11:00 51.95272 4.43508 -5 ft 19 kts 184°
2026-04-27 11:00 51.95157 4.43602 -5 ft 19 kts 146°
2026-04-27 11:00 51.95046 4.43717 -5 ft 19 kts 147°
2026-04-27 11:01 51.95033 4.43817 -5 ft 9 kts 58°
2026-04-27 11:01 51.95068 4.43893 -5 ft 8 kts 11°
2026-04-27 11:01 51.95089 4.43881 -5 ft 0 kts 328°